Wind_Speed
14 14 13 11 12 13 12 11 10 10 9 7 6 9 10 8 8 9 10 10 9 9 9 9 9 9 9 9 10 10 10 10 11 11 10 10 9 8 8 7 6 5 5 4
17 15 13 13 14 14 14 12 11 12 12 8 8 11 12 10 9 9 10 10 10 9 9 10 10 9 9 9 10 10 10 10 11 11 11 10 9 9 9 8 7 6 5 4
18 15 15 15 15 17 15 13 13 13 12 11 10 11 13 12 10 10 9 10 10 11 10 9 9 8 9 9 10 10 11 10 10 11 11 11 10 10 9 9 8 7 6 6
19 17 19 18 18 16 16 15 16 16 14 15 14 14 14 15 14 11 10 10 11 11 12 11 9 8 9 9 10 10 10 10 10 10 10 11 10 10 10 9 8 8 7 7
20 20 21 21 19 18 18 17 18 18 17 18 18 16 14 16 15 13 11 11 11 12 12 11 11 10 9 9 9 10 10 10 10 10 11 11 11 11 11 10 9 9 9 8
21 21 22 23 21 21 20 19 19 18 18 20 18 18 18 18 16 15 13 11 12 12 13 12 12 11 11 10 10 11 11 11 11 11 11 12 12 11 11 11 10 10 10 10
22 22 22 22 23 22 22 20 20 20 21 21 17 19 20 20 17 17 16 13 12 13 14 13 13 13 13 12 12 12 12 12 12 12 12 12 12 11 11 11 11 11 10 11
23 23 22 23 24 23 23 22 23 21 20 19 19 21 20 20 19 18 18 17 17 16 15 14 13 14 14 14 13 13 13 13 14 13 13 13 13 12 12 12 13 13 12 12
23 24 21 23 23 24 24 24 23 23 23 22 22 22 19 20 19 18 18 19 20 18 17 17 16 16 16 16 15 15 15 15 15 15 14 14 13 13 13 14 14 15 14 14
25 24 23 24 24 25 25 23 23 24 25 25 24 22 19 19 19 20 20 20 22 21 19 19 18 18 17 17 17 17 17 16 16 16 16 15 14 14 14 15 16 16 16 16
26 26 23 24 26 24 24 26 25 25 26 26 25 24 20 23 23 22 22 23 22 21 21 21 20 21 19 19 19 19 19 18 18 18 17 16 16 15 16 17 17 17 17 17
27 27 25 24 25 24 24 26 26 27 28 26 26 24 22 23 22 22 22 24 23 22 22 22 22 22 21 21 21 21 21 20 20 20 19 19 17 17 18 19 19 19 19 18
27 27 26 24 23 24 25 25 26 27 26 26 25 26 24 23 23 24 25 25 24 25 25 25 25 24 22 22 23 22 22 22 21 20 20 20 20 19 20 20 21 21 21 20
28 29 28 26 23 22 24 25 26 27 27 26 26 27 27 25 25 25 25 25 25 25 25 26 26 26 24 24 24 24 23 23 22 21 21 22 21 22 22 22 23 23 22 22
30 30 29 28 25 24 25 25 26 27 28 27 26 27 28 26 27 26 25 26 26 27 27 25 26 27 26 25 25 25 24 24 24 23 23 24 24 24 24 24 24 25 24 24
31 30 29 29 28 27 27 27 28 28 28 28 26 27 29 29 30 28 26 28 28 26 27 26 25 26 26 26 26 26 26 26 26 25 25 25 26 26 26 26 26 26 26 26
31 30 30 30 28 28 28 28 27 28 27 28 29 30 31 30 31 32 29 28 27 27 27 26 26 26 27 27 27 27 28 28 28 28 28 28 28 28 28 28 28 27 27 27
30 31 30 29 28 29 28 26 26 27 28 28 30 31 32 30 30 28 28 28 27 27 27 26 26 28 27 27 28 28 29 30 30 30 30 29 30 30 29 30 29 28 28 28
29 30 30 29 28 28 28 28 28 28 30 31 30 31 31 29 30 31 29 28 29 28 27 27 28 28 29 29 30 30 31 31 31 31 31 31 32 32 32 31 30 30 30 30
30 31 32 30 28 28 29 28 28 28 29 30 31 31 30 30 31 32 30 29 29 30 28 28 29 29 30 31 31 31 32 33 33 33 33 33 33 34 34 32 32 32 32 32
29 30 31 30 30 29 29 27 27 28 30 30 31 32 32 33 34 33 31 31 31 31 30 30 30 30 31 32 33 33 32 33 33 34 34 34 34 34 33 32 32 33 34 34
29 30 31 31 31 32 31 28 29 30 31 31 31 31 33 33 34 34 34 33 33 33 32 32 32 32 33 33 34 34 34 34 34 35 35 35 35 34 34 34 33 34 34 35
29 30 30 32 34 34 34 33 32 32 33 33 33 32 33 33 33 34 34 34 34 32 32 32 33 34 34 35 35 36 36 36 36 36 36 36 36 35 34 35 35 35 35 35
29 29 32 34 35 35 35 35 34 34 34 34 33 33 33 33 34 33 33 33 32 31 32 32 34 35 36 36 36 37 36 37 37 37 37 37 36 35 36 35 35 36 36 35
30 31 33 34 35 36 36 35 34 34 34 35 34 33 33 33 34 34 33 33 33 33 34 34 34 36 36 36 36 36 36 36 36 36 37 37 37 36 36 36 37 36 36 36
31 31 32 34 34 34 34 34 35 35 35 35 34 35 34 34 34 34 34 34 34 34 34 35 35 35 36 36 36 36 36 37 37 37 37 37 36 36 36 36 36 35 36 36
Wind_Direction
220 221 217 213 224 229 231 244 258 271 262 253 255 281 294 311 322 329 340 345 352 356 360 3 7 10 15 20 24 24 20 19 18 17 16 17 16 14 13 13 8 359 352 347
226 228 221 215 224 235 231 241 249 259 260 257 255 275 288 293 299 310 323 329 334 338 343 350 354 1 6 7 8 9 11 11 12 13 12 10 11 7 6 7 4 1 353 345
228 227 228 227 228 235 238 242 249 253 255 264 259 270 281 284 286 293 306 314 319 326 330 333 340 348 352 355 356 357 2 6 4 4 6 5 4 3 3 3 2 357 355 348
229 227 230 232 234 234 240 243 248 251 252 258 260 261 274 280 283 280 290 302 306 314 320 323 328 333 337 342 345 347 352 357 357 357 360 358 357 354 355 354 355 354 349 342
232 229 231 233 234 236 239 239 244 249 251 255 259 259 260 272 275 278 275 290 298 299 305 309 314 319 322 326 330 334 338 344 347 349 349 350 350 349 351 349 347 346 345 340
234 232 235 236 234 234 236 238 246 252 253 254 259 267 268 269 269 276 271 280 289 293 296 299 303 308 309 310 315 321 326 331 334 337 339 339 340 339 341 343 341 339 338 338
236 234 236 237 237 237 236 237 245 249 252 253 256 262 267 268 268 279 281 278 280 284 289 291 295 299 299 299 303 309 313 316 319 321 325 327 330 330 331 332 335 334 331 330
242 241 239 240 239 235 234 235 242 246 250 254 253 253 259 264 264 266 268 273 275 277 280 283 286 291 292 291 293 298 301 305 308 310 313 317 320 321 322 324 325 327 326 323
239 245 243 241 243 237 233 234 237 247 252 256 255 255 251 253 256 259 261 268 273 274 274 277 281 283 286 287 289 292 294 297 299 300 302 307 313 315 315 316 318 320 319 317
238 242 240 240 237 237 233 235 236 240 250 254 259 264 260 262 259 260 260 259 265 269 269 273 276 278 280 283 285 288 292 296 297 297 298 299 301 303 306 309 313 315 315 313
236 238 238 236 235 231 232 233 234 237 242 250 256 261 260 260 255 255 260 262 260 262 264 268 273 275 275 279 281 284 287 290 293 293 294 293 294 296 299 304 307 309 309 309
235 237 235 236 239 235 235 238 237 240 243 245 254 260 255 259 262 260 262 262 259 261 261 264 270 272 272 274 277 279 282 284 287 288 291 290 290 292 294 297 300 302 303 304
232 234 237 236 236 236 236 236 237 239 245 250 254 258 258 260 263 262 261 263 262 261 261 263 268 271 271 272 273 275 278 280 283 288 290 289 289 291 292 293 296 297 298 299
231 230 231 232 234 233 236 236 236 238 240 247 249 254 253 254 258 256 257 259 261 260 260 262 262 268 270 272 272 272 275 276 280 284 285 285 287 289 290 291 292 293 295 296
230 232 232 229 230 233 238 237 235 236 236 241 248 252 252 254 257 258 261 260 260 261 266 262 260 263 265 269 272 273 275 277 279 280 281 283 284 287 288 289 288 290 292 293
230 231 232 230 228 231 238 238 237 237 239 239 242 251 256 258 261 261 262 263 262 264 265 263 260 261 263 266 269 270 273 275 277 278 279 282 283 284 284 286 287 287 288 290
231 231 232 233 231 234 238 240 240 239 238 237 240 249 255 259 262 263 267 268 264 264 265 263 262 261 260 263 266 268 272 273 274 277 278 279 281 282 283 284 285 286 285 286
230 231 232 232 231 236 239 242 243 241 240 240 241 244 251 257 262 264 266 266 266 264 266 266 264 262 260 262 265 268 270 272 273 274 276 278 279 280 281 282 283 283 283 284
231 232 230 230 234 239 240 238 239 238 241 242 244 247 251 257 264 265 263 264 266 267 266 265 264 262 261 264 265 266 269 271 272 273 274 277 279 278 279 280 281 281 281 281
231 234 232 230 232 241 244 241 239 239 240 242 244 247 252 255 259 262 263 263 266 266 265 264 263 263 263 264 266 269 271 273 272 272 275 278 280 281 279 277 278 280 280 280
228 232 231 231 233 240 245 244 243 241 243 245 246 249 253 255 258 260 263 265 266 264 262 262 262 263 264 265 268 270 272 276 277 276 276 278 280 280 278 276 278 280 280 279
229 231 230 229 232 238 241 243 244 244 247 249 250 251 255 258 260 261 263 264 265 264 262 262 263 264 266 267 269 272 273 276 278 278 277 277 278 278 278 276 277 280 281 280
231 230 231 231 234 237 241 244 247 248 251 254 255 256 258 261 263 263 264 265 266 264 263 263 264 266 267 268 269 271 273 275 276 278 279 278 280 278 279 280 278 281 280 282
232 231 233 236 237 239 242 246 249 251 254 258 260 260 260 261 262 263 265 266 265 265 265 265 266 268 269 270 271 272 274 274 275 278 279 279 280 279 278 279 280 281 280 282
232 233 236 239 241 242 242 247 250 252 255 258 260 260 261 263 263 264 264 265 265 266 267 268 269 269 270 271 271 273 275 274 275 277 278 278 279 280 280 278 278 279 280 281
234 237 239 241 243 245 246 246 248 252 255 257 259 262 263 263 264 265 266 266 266 266 268 270 271 272 271 272 272 273 275 276 277 277 278 279 279 280 280 280 281 281 281 281
Height
5900 5902 5905 5908 5910 5912 5913 5914 5914 5915 5915 5914 5915 5915 5913 5912 5911 5910 5909 5908 5907 5905 5904 5903 5902 5901 5900 5899 5899 5898 5897 5896 5895 5894 5892 5891 5890 5889 5888 5887 5886 5885 5885 5885
5897 5899 5903 5906 5908 5909 5911 5912 5915 5916 5914 5914 5914 5914 5912 5912 5911 5910 5909 5908 5907 5906 5905 5903 5903 5902 5901 5900 5899 5898 5897 5897 5896 5895 5894 5892 5891 5890 5889 5888 5887 5886 5886 5885
5893 5898 5900 5902 5905 5907 5909 5911 5913 5913 5912 5912 5913 5913 5912 5910 5910 5909 5908 5907 5906 5905 5905 5904 5903 5902 5901 5901 5900 5899 5898 5897 5896 5895 5894 5893 5892 5891 5890 5889 5888 5887 5886 5886
5890 5894 5897 5899 5901 5904 5906 5909 5910 5910 5910 5911 5912 5911 5910 5909 5908 5907 5907 5906 5905 5905 5904 5903 5903 5902 5902 5901 5900 5899 5898 5897 5896 5895 5894 5893 5892 5891 5890 5889 5888 5887 5886 5886
5886 5889 5892 5895 5898 5901 5903 5906 5907 5906 5906 5908 5907 5907 5907 5906 5905 5904 5904 5905 5904 5904 5903 5902 5902 5901 5901 5900 5900 5899 5898 5897 5896 5895 5894 5893 5892 5891 5890 5889 5888 5887 5886 5885
5881 5884 5887 5890 5894 5896 5899 5901 5902 5902 5902 5903 5905 5905 5904 5903 5902 5901 5900 5902 5902 5902 5901 5901 5900 5900 5900 5899 5899 5898 5897 5896 5895 5894 5893 5892 5891 5890 5890 5889 5887 5886 5886 5885
5876 5879 5882 5885 5888 5892 5894 5897 5898 5899 5899 5899 5902 5902 5902 5901 5900 5899 5899 5898 5899 5899 5899 5899 5898 5898 5898 5897 5897 5897 5896 5895 5894 5893 5892 5891 5890 5889 5889 5888 5887 5886 5885 5884
5871 5874 5877 5880 5883 5886 5889 5892 5894 5895 5895 5897 5898 5898 5899 5898 5896 5896 5896 5896 5896 5896 5896 5896 5896 5895 5895 5895 5894 5894 5894 5893 5892 5891 5891 5889 5888 5888 5887 5886 5885 5884 5883 5882
5866 5870 5874 5875 5877 5880 5883 5885 5889 5891 5891 5892 5892 5892 5892 5893 5893 5892 5891 5893 5893 5893 5893 5892 5892 5892 5892 5891 5891 5891 5891 5890 5890 5889 5889 5888 5887 5886 5885 5884 5883 5882 5881 5880
5860 5864 5867 5869 5871 5873 5877 5880 5884 5885 5886 5886 5887 5887 5887 5888 5887 5887 5886 5887 5887 5887 5888 5888 5888 5888 5888 5888 5888 5887 5887 5886 5886 5886 5885 5885 5884 5883 5883 5882 5881 5880 5878 5877
5853 5857 5860 5863 5864 5867 5871 5874 5876 5878 5880 5881 5882 5884 5882 5883 5881 5881 5881 5882 5882 5882 5882 5882 5883 5883 5883 5883 5884 5884 5883 5883 5883 5882 5882 5881 5880 5880 5879 5879 5878 5877 5875 5874
5846 5849 5852 5856 5858 5861 5865 5867 5870 5872 5873 5875 5875 5879 5875 5876 5875 5875 5875 5875 5875 5876 5877 5877 5878 5878 5878 5878 5879 5879 5879 5879 5878 5878 5877 5876 5876 5876 5875 5875 5874 5873 5872 5870
5838 5842 5845 5849 5854 5855 5858 5860 5863 5866 5868 5869 5871 5873 5870 5870 5870 5870 5868 5868 5870 5871 5871 5871 5872 5873 5873 5874 5874 5874 5874 5874 5873 5873 5873 5872 5871 5871 5871 5870 5869 5868 5867 5866
5830 5833 5838 5843 5846 5849 5850 5853 5856 5859 5861 5863 5864 5865 5864 5864 5864 5862 5860 5862 5864 5865 5865 5865 5866 5867 5868 5868 5868 5869 5869 5869 5869 5868 5868 5868 5867 5866 5865 5865 5864 5863 5862 5861
5823 5826 5830 5835 5839 5842 5844 5846 5848 5851 5853 5856 5857 5856 5855 5856 5857 5856 5854 5857 5858 5858 5856 5856 5858 5860 5861 5862 5862 5863 5863 5863 5863 5863 5863 5862 5861 5860 5860 5859 5859 5858 5857 5855
5815 5819 5823 5827 5831 5835 5836 5838 5840 5843 5846 5848 5850 5848 5848 5849 5849 5848 5848 5850 5851 5851 5851 5851 5852 5853 5854 5855 5856 5856 5857 5857 5857 5857 5857 5856 5855 5854 5853 5853 5852 5851 5850 5849
5807 5811 5815 5820 5824 5826 5830 5832 5834 5836 5837 5840 5841 5841 5842 5843 5841 5842 5842 5843 5844 5845 5845 5845 5845 5846 5847 5848 5849 5850 5850 5850 5850 5850 5850 5849 5848 5847 5847 5846 5845 5843 5843 5842
5800 5804 5808 5812 5817 5819 5825 5826 5828 5829 5830 5832 5833 5834 5835 5836 5834 5834 5835 5835 5836 5837 5837 5838 5839 5839 5840 5841 5842 5843 5843 5843 5843 5843 5842 5841 5841 5840 5839 5838 5837 5836 5835 5833
5794 5796 5801 5805 5809 5811 5815 5817 5818 5820 5822 5824 5825 5826 5827 5829 5827 5827 5828 5829 5830 5831 5831 5832 5832 5833 5834 5834 5835 5836 5835 5835 5835 5834 5834 5833 5832 5831 5830 5830 5829 5828 5826 5825
5786 5789 5794 5797 5801 5804 5806 5808 5810 5813 5813 5814 5816 5817 5819 5821 5821 5821 5821 5822 5823 5823 5824 5825 5825 5826 5827 5827 5827 5827 5827 5827 5826 5825 5825 5824 5823 5822 5821 5821 5820 5819 5817 5816
5779 5782 5786 5790 5794 5795 5796 5799 5803 5805 5805 5806 5807 5809 5811 5811 5813 5814 5815 5815 5816 5815 5816 5817 5818 5819 5819 5819 5819 5819 5819 5818 5817 5816 5815 5815 5814 5812 5812 5811 5811 5810 5808 5806
5772 5775 5779 5782 5786 5788 5788 5791 5794 5795 5797 5798 5799 5801 5802 5803 5805 5805 5806 5807 5808 5807 5808 5809 5810 5811 5810 5810 5811 5811 5810 5810 5808 5807 5806 5805 5804 5802 5802 5801 5801 5800 5798 5797
5764 5768 5770 5774 5778 5779 5781 5783 5784 5786 5789 5790 5791 5793 5794 5796 5796 5797 5798 5799 5799 5799 5800 5800 5801 5802 5802 5802 5802 5802 5801 5800 5800 5798 5797 5795 5793 5792 5792 5792 5791 5790 5789 5788
5756 5759 5762 5765 5768 5770 5773 5775 5777 5779 5781 5782 5783 5785 5786 5787 5788 5788 5789 5790 5790 5791 5791 5792 5792 5792 5793 5793 5792 5792 5791 5791 5790 5788 5787 5786 5784 5783 5782 5781 5780 5780 5779 5778
5747 5751 5754 5757 5760 5762 5765 5767 5769 5771 5772 5774 5775 5776 5777 5778 5779 5779 5780 5781 5781 5782 5782 5782 5783 5782 5782 5782 5781 5781 5781 5781 5780 5778 5777 5775 5774 5773 5771 5770 5769 5769 5768 5767
5742 5744 5747 5750 5752 5754 5757 5759 5761 5762 5764 5765 5766 5767 5768 5769 5770 5770 5771 5772 5772 5773 5773 5773 5773 5773 5773 5772 5772 5771 5771 5770 5769 5768 5767 5765 5763 5763 5762 5760 5759 5758 5757 5756